| time (UTC) | temp C | wind direction | speed KPH | gust KPH | rain 1hr cm | rain 24hr cm | rain mn cm | humidity % | barometer mb |
| 20260905002046 | 22 | 134 | 3.2 | 14.5 | 0.00 | 0.00 | 0.00 | 46 | 1018.8 |
| 20260905001556 | 22 | 0 | 3.2 | 12.9 | 0.00 | 0.00 | 0.00 | 44 | 1018.8 |
| 20260905001049 | 22 | 208 | 1.6 | 12.9 | 0.00 | 0.00 | 0.00 | 45 | 1018.8 |
| 20260905000546 | 22 | 134 | 1.6 | 11.3 | 0.00 | 0.00 | 0.00 | 46 | 1018.9 |
| 20260904235547 | 22 | 117 | 1.6 | 12.9 | 0.00 | 0.00 | 0.00 | 46 | 1018.8 |
| 20260904235047 | 22 | 131 | 3.2 | 14.5 | 0.00 | 0.00 | 0.00 | 44 | 1018.7 |
| 20260904234601 | 23 | 163 | 4.8 | 14.5 | 0.00 | 0.00 | 0.00 | 45 | 1018.7 |
| 20260904234050 | 23 | 256 | 1.6 | 19.3 | 0.00 | 0.00 | 0.00 | 44 | 1018.8 |
| 20260904233548 | 23 | 160 | 8.0 | 19.3 | 0.00 | 0.00 | 0.00 | 42 | 1018.8 |
| 20260904233101 | 23 | 173 | 1.6 | 19.3 | 0.00 | 0.00 | 0.00 | 43 | 1018.8 |
| 20260904232546 | 23 | 163 | 3.2 | 19.3 | 0.00 | 0.00 | 0.00 | 40 | 1018.8 |
| 20260904232046 | 23 | 155 | 1.6 | 16.1 | 0.00 | 0.00 | 0.00 | 39 | 1019.0 |
| 20260904231603 | 24 | 223 | 3.2 | 16.1 | 0.00 | 0.00 | 0.00 | 39 | 1018.9 |
| 20260904231047 | 24 | 155 | 3.2 | 16.1 | 0.00 | 0.00 | 0.00 | 40 | 1018.9 |
| 20260904230545 | 24 | 157 | 4.8 | 16.1 | 0.00 | 0.00 | 0.00 | 39 | 1018.9 |
| 20260904230105 | 24 | 202 | 3.2 | 14.5 | 0.00 | 0.00 | 0.00 | 36 | 1018.9 |
| 20260904225544 | 24 | 123 | 4.8 | 14.5 | 0.00 | 0.00 | 0.00 | 36 | 1018.8 |
| 20260904225052 | 24 | 214 | 3.2 | 14.5 | 0.00 | 0.00 | 0.00 | 37 | 1018.8 |
| 20260904224601 | 24 | 144 | 1.6 | 20.9 | 0.00 | 0.00 | 0.00 | 36 | 1018.8 |
| 20260904224050 | 25 | 178 | 4.8 | 20.9 | 0.00 | 0.00 | 0.00 | 36 | 1018.9 |
| 20260904223549 | 24 | 242 | 3.2 | 17.7 | 0.00 | 0.00 | 0.00 | 35 | 1019.0 |
| 20260904223101 | 25 | 167 | 3.2 | 19.3 | 0.00 | 0.00 | 0.00 | 33 | 1019.0 |
| 20260904222545 | 25 | 133 | 8.0 | 19.3 | 0.00 | 0.00 | 0.00 | 29 | 1019.0 |
| 20260904222048 | 25 | 192 | 6.4 | 17.7 | 0.00 | 0.00 | 0.00 | 28 | 1019.0 |
| 20260904221613 | 25 | 216 | 4.8 | 17.7 | 0.00 | 0.00 | 0.00 | 27 | 1019.1 |
| 20260904221045 | 25 | 0 | 4.8 | 12.9 | 0.00 | 0.00 | 0.00 | 30 | 1019.0 |
| 20260904220548 | 25 | 184 | 3.2 | 16.1 | 0.00 | 0.00 | 0.00 | 27 | 1019.0 |
| 20260904220107 | 25 | 200 | 3.2 | 16.1 | 0.00 | 0.00 | 0.00 | 28 | 1019.2 |
| 20260904215547 | 25 | 216 | 4.8 | 16.1 | 0.00 | 0.00 | 0.00 | 26 | 1019.3 |
| 20260904215044 | 25 | 142 | 6.4 | 16.1 | 0.00 | 0.00 | 0.00 | 26 | 1019.1 |
| 20260904214611 | 25 | 343 | 1.6 | 17.7 | 0.00 | 0.00 | 0.00 | 28 | 1019.1 |
| 20260904214047 | 25 | 143 | 3.2 | 19.3 | 0.00 | 0.00 | 0.00 | 28 | 1019.3 |
| 20260904213545 | 25 | 169 | 4.8 | 19.3 | 0.00 | 0.00 | 0.00 | 28 | 1019.4 |
| 20260904213058 | 25 | 148 | 3.2 | 12.9 | 0.00 | 0.00 | 0.00 | 29 | 1019.3 |
| 20260904212549 | 25 | 116 | 1.6 | 12.9 | 0.00 | 0.00 | 0.00 | 30 | 1019.2 |
| 20260904212046 | 25 | 219 | 1.6 | 12.9 | 0.00 | 0.00 | 0.00 | 29 | 1019.3 |
| 20260904211618 | 25 | 349 | 4.8 | 14.5 | 0.00 | 0.00 | 0.00 | 28 | 1019.3 |
| 20260904211048 | 25 | 232 | 3.2 | 17.7 | 0.00 | 0.00 | 0.00 | 29 | 1019.4 |
| 20260904210545 | 25 | 148 | 3.2 | 17.7 | 0.00 | 0.00 | 0.00 | 30 | 1019.3 |
| 20260904210105 | 25 | 163 | 3.2 | 17.7 | 0.00 | 0.00 | 0.00 | 30 | 1019.4 |
| 20260904205549 | 25 | 108 | 3.2 | 17.7 | 0.00 | 0.00 | 0.00 | 31 | 1019.3 |
| 20260904205045 | 25 | 180 | 4.8 | 17.7 | 0.00 | 0.00 | 0.00 | 30 | 1019.4 |
| 20260904204600 | 24 | 164 | 1.6 | 14.5 | 0.00 | 0.00 | 0.00 | 31 | 1019.4 |
| 20260904204045 | 24 | 135 | 1.6 | 14.5 | 0.00 | 0.00 | 0.00 | 32 | 1019.6 |
| 20260904203548 | 24 | 165 | 3.2 | 19.3 | 0.00 | 0.00 | 0.00 | 32 | 1019.6 |
| 20260904203114 | 25 | 249 | 4.8 | 19.3 | 0.00 | 0.00 | 0.00 | 31 | 1019.4 |
| 20260904202544 | 25 | 157 | 3.2 | 11.3 | 0.00 | 0.00 | 0.00 | 31 | 1019.5 |
| 20260904202044 | 24 | 150 | 3.2 | 12.9 | 0.00 | 0.00 | 0.00 | 32 | 1019.4 |
| 20260904201600 | 24 | 95 | 4.8 | 14.5 | 0.00 | 0.00 | 0.00 | 31 | 1019.4 |
| 20260904201044 | 24 | 157 | 3.2 | 19.3 | 0.00 | 0.00 | 0.00 | 31 | 1019.6 |
| 20260904200544 | 24 | 144 | 4.8 | 19.3 | 0.00 | 0.00 | 0.00 | 29 | 1019.4 |
| 20260904200111 | 24 | 137 | 1.6 | 9.7 | 0.00 | 0.00 | 0.00 | 30 | 1019.5 |
| 20260904195546 | 24 | 194 | 1.6 | 11.3 | 0.00 | 0.00 | 0.00 | 29 | 1019.4 |
| 20260904195045 | 23 | 188 | 1.6 | 11.3 | 0.00 | 0.00 | 0.00 | 28 | 1019.4 |
| 20260904194603 | 23 | 227 | 4.8 | 11.3 | 0.00 | 0.00 | 0.00 | 28 | 1019.5 |
| 20260904194044 | 23 | 188 | 1.6 | 12.9 | 0.00 | 0.00 | 0.00 | 28 | 1019.4 |
| 20260904193548 | 23 | 101 | 1.6 | 19.3 | 0.00 | 0.00 | 0.00 | 29 | 1019.6 |
| 20260904193058 | 23 | 213 | 4.8 | 19.3 | 0.00 | 0.00 | 0.00 | 27 | 1019.5 |
| 20260904192542 | 23 | 155 | 3.2 | 17.7 | 0.00 | 0.00 | 0.00 | 26 | 1019.6 |
| 20260904192044 | 23 | 177 | 1.6 | 11.3 | 0.00 | 0.00 | 0.00 | 25 | 1019.7 |
| 20260904191558 | 23 | 167 | 3.2 | 14.5 | 0.00 | 0.00 | 0.00 | 25 | 1019.7 |
| 20260904191044 | 23 | 202 | 3.2 | 14.5 | 0.00 | 0.00 | 0.00 | 23 | 1019.7 |
| 20260904190546 | 23 | 0 | 1.6 | 9.7 | 0.00 | 0.00 | 0.00 | 24 | 1019.8 |
| 20260904190058 | 23 | 149 | 3.2 | 12.9 | 0.00 | 0.00 | 0.00 | 23 | 1019.9 |
| 20260904185546 | 23 | 237 | 1.6 | 16.1 | 0.00 | 0.00 | 0.00 | 23 | 1019.9 |
| 20260904185044 | 22 | 215 | 3.2 | 16.1 | 0.00 | 0.00 | 0.00 | 23 | 1019.9 |
| 20260904184600 | 22 | 144 | 4.8 | 16.1 | 0.00 | 0.00 | 0.00 | 24 | 1019.8 |
| 20260904184046 | 22 | 271 | 1.6 | 9.7 | 0.00 | 0.00 | 0.00 | 25 | 1019.9 |
| 20260904183544 | 22 | 225 | 1.6 | 11.3 | 0.00 | 0.00 | 0.00 | 27 | 1020.0 |
| 20260904183101 | 22 | 166 | 3.2 | 16.1 | 0.00 | 0.00 | 0.00 | 26 | 1020.0 |
| 20260904182544 | 21 | 213 | 1.6 | 16.1 | 0.00 | 0.00 | 0.00 | 25 | 1019.9 |
| 20260904182045 | 21 | 144 | 6.4 | 16.1 | 0.00 | 0.00 | 0.00 | 24 | 1019.9 |
| 20260904181558 | 21 | 99 | 3.2 | 14.5 | 0.00 | 0.00 | 0.00 | 27 | 1019.9 |
| 20260904181047 | 21 | 148 | 0.0 | 16.1 | 0.00 | 0.00 | 0.00 | 28 | 1019.8 |
| 20260904180548 | 21 | 159 | 4.8 | 16.1 | 0.00 | 0.00 | 0.00 | 26 | 1019.9 |
| 20260904180116 | 21 | 192 | 3.2 | 12.9 | 0.00 | 0.00 | 0.00 | 26 | 1019.9 |
| 20260904175548 | 21 | 188 | 1.6 | 14.5 | 0.00 | 0.00 | 0.00 | 28 | 1019.9 |
| 20260904175049 | 21 | 177 | 6.4 | 14.5 | 0.00 | 0.00 | 0.00 | 27 | 1019.9 |
| 20260904174609 | 21 | 0 | 3.2 | 14.5 | 0.00 | 0.00 | 0.00 | 28 | 1019.8 |
| 20260904174047 | 21 | 0 | 3.2 | 14.5 | 0.00 | 0.00 | 0.00 | 27 | 1019.7 |
| 20260904173548 | 21 | 196 | 1.6 | 11.3 | 0.00 | 0.00 | 0.00 | 26 | 1019.7 |
| 20260904173105 | 21 | 94 | 1.6 | 11.3 | 0.00 | 0.00 | 0.00 | 27 | 1019.7 |
| 20260904172545 | 21 | 157 | 3.2 | 12.9 | 0.00 | 0.00 | 0.00 | 25 | 1019.6 |
| 20260904172045 | 21 | 177 | 4.8 | 12.9 | 0.00 | 0.00 | 0.00 | 24 | 1019.5 |
| 20260904171607 | 21 | 174 | 4.8 | 12.9 | 0.00 | 0.00 | 0.00 | 24 | 1019.5 |
| 20260904171047 | 21 | 138 | 1.6 | 9.7 | 0.00 | 0.00 | 0.00 | 21 | 1019.6 |
| 20260904170545 | 21 | 180 | 0.0 | 9.7 | 0.00 | 0.00 | 0.00 | 20 | 1019.4 |
| 20260904165548 | 20 | 205 | 1.6 | 6.4 | 0.00 | 0.00 | 0.00 | 18 | 1019.4 |
| 20260904165048 | 20 | 197 | 1.6 | 9.7 | 0.00 | 0.00 | 0.00 | 21 | 1019.3 |
| 20260904164600 | 20 | 147 | 3.2 | 11.3 | 0.00 | 0.00 | 0.00 | 18 | 1019.1 |
| 20260904164047 | 20 | 190 | 4.8 | 11.3 | 0.00 | 0.00 | 0.00 | 18 | 1019.1 |
| 20260904163548 | 19 | 175 | 0.0 | 4.8 | 0.00 | 0.00 | 0.00 | 19 | 1019.0 |
| 20260904163058 | 18 | 152 | 0.0 | 4.8 | 0.00 | 0.00 | 0.00 | 19 | 1019.0 |
| 20260904162545 | 18 | 184 | 0.0 | 8.0 | 0.00 | 0.00 | 0.00 | 17 | 1018.8 |
| 20260904162044 | 18 | 128 | 0.0 | 8.0 | 0.00 | 0.00 | 0.00 | 18 | 1018.9 |
| 20260904161606 | 17 | 0 | 0.0 | 4.8 | 0.00 | 0.00 | 0.00 | 21 | 1018.8 |
| 20260904161048 | 17 | 0 | 0.0 | 4.8 | 0.00 | 0.00 | 0.00 | 25 | 1018.8 |
| 20260904160548 | 16 | 0 | 0.0 | 4.8 | 0.00 | 0.00 | 0.00 | 23 | 1018.7 |
| 20260904160100 | 15 | 0 | 0.0 | 6.4 | 0.00 | 0.00 | 0.00 | 29 | 1018.7 |
| 20260904155546 | 15 | 55 | 0.0 | 6.4 | 0.00 | 0.00 | 0.00 | 32 | 1018.7 |
| 20260904155047 | 14 | 46 | 0.0 | 4.8 | 0.00 | 0.00 | 0.00 | 34 | 1018.7 |
| 20260904154559 | 13 | 0 | 1.6 | 4.8 | 0.00 | 0.00 | 0.00 | 34 | 1018.6 |
| 20260904154048 | 13 | 46 | 3.2 | 4.8 | 0.00 | 0.00 | 0.00 | 35 | 1018.5 |
| 20260904153547 | 12 | 46 | 1.6 | 4.8 | 0.00 | 0.00 | 0.00 | 37 | 1018.5 |
| 20260904153119 | 12 | 46 | 1.6 | 4.8 | 0.00 | 0.00 | 0.00 | 37 | 1018.5 |
| 20260904152548 | 12 | 0 | 1.6 | 4.8 | 0.00 | 0.00 | 0.00 | 36 | 1018.5 |
| 20260904152049 | 12 | 44 | 1.6 | 4.8 | 0.00 | 0.00 | 0.00 | 37 | 1018.4 |
| 20260904151602 | 11 | 44 | 1.6 | 4.8 | 0.00 | 0.00 | 0.00 | 37 | 1018.4 |
| 20260904151052 | 11 | 0 | 1.6 | 4.8 | 0.00 | 0.00 | 0.00 | 37 | 1018.4 |
| 20260904150543 | 11 | 52 | 0.0 | 1.6 | 0.00 | 0.00 | 0.00 | 38 | 1018.3 |
| 20260904150101 | 11 | 0 | 0.0 | 1.6 | 0.00 | 0.00 | 0.00 | 40 | 1018.4 |
| 20260904145549 | 11 | 0 | 0.0 | 1.6 | 0.00 | 0.00 | 0.00 | 42 | 1018.3 |
| 20260904145042 | 11 | 0 | 0.0 | 1.6 | 0.00 | 0.00 | 0.00 | 44 | 1018.3 |
| 20260904144558 | 11 | 0 | 0.0 | 1.6 | 0.00 | 0.00 | 0.00 | 45 | 1018.3 |
| 20260904144047 | 11 | 0 | 0.0 | 1.6 | 0.00 | 0.00 | 0.00 | 44 | 1018.3 |
| 20260904143544 | 11 | 0 | 0.0 | 0.0 | 0.00 | 0.00 | 0.00 | 43 | 1018.2 |
| 20260904143106 | 10 | 0 | 0.0 | 1.6 | 0.00 | 0.00 | 0.00 | 42 | 1018.3 |
| 20260904142551 | 10 | 0 | 0.0 | 1.6 | 0.00 | 0.00 | 0.00 | 41 | 1018.2 |
| 20260904142045 | 10 | 0 | 0.0 | 1.6 | 0.00 | 0.00 | 0.00 | 42 | 1018.2 |
| 20260904141604 | 10 | 0 | 0.0 | 1.6 | 0.00 | 0.00 | 0.00 | 42 | 1018.1 |
| 20260904141047 | 10 | 0 | 0.0 | 1.6 | 0.00 | 0.00 | 0.00 | 42 | 1018.0 |
| 20260904140547 | 10 | 0 | 0.0 | 0.0 | 0.00 | 0.00 | 0.00 | 40 | 1018.0 |
| 20260904140101 | 10 | 0 | 0.0 | 0.0 | 0.00 | 0.00 | 0.00 | 40 | 1017.9 |
| 20260904135546 | 10 | 0 | 0.0 | 0.0 | 0.00 | 0.00 | 0.00 | 44 | 1017.9 |
| 20260904135047 | 10 | 0 | 0.0 | 0.0 | 0.00 | 0.00 | 0.00 | 45 | 1017.8 |
| 20260904134601 | 10 | 0 | 0.0 | 0.0 | 0.00 | 0.00 | 0.00 | 43 | 1017.8 |
| 20260904134044 | 10 | 0 | 0.0 | 0.0 | 0.00 | 0.00 | 0.00 | 44 | 1017.7 |
| 20260904133548 | 10 | 0 | 0.0 | 0.0 | 0.00 | 0.00 | 0.00 | 43 | 1017.6 |
| 20260904133101 | 10 | 0 | 0.0 | 0.0 | 0.00 | 0.00 | 0.00 | 42 | 1017.5 |
| 20260904132548 | 10 | 0 | 0.0 | 0.0 | 0.00 | 0.00 | 0.00 | 42 | 1017.4 |
| 20260904132047 | 10 | 0 | 0.0 | 0.0 | 0.00 | 0.00 | 0.00 | 41 | 1017.4 |
| 20260904131634 | 11 | 0 | 0.0 | 0.0 | 0.00 | 0.00 | 0.00 | 39 | 1017.4 |
| 20260904131047 | 11 | 0 | 0.0 | 0.0 | 0.00 | 0.00 | 0.00 | 42 | 1017.3 |
| 20260904130547 | 11 | 0 | 0.0 | 0.0 | 0.00 | 0.00 | 0.00 | 44 | 1017.3 |
| 20260904130058 | 11 | 0 | 0.0 | 1.6 | 0.00 | 0.00 | 0.00 | 47 | 1017.3 |
| 20260904125548 | 11 | 0 | 0.0 | 1.6 | 0.00 | 0.00 | 0.00 | 47 | 1017.3 |
| 20260904125048 | 11 | 0 | 0.0 | 0.0 | 0.00 | 0.00 | 0.00 | 47 | 1017.3 |
| 20260904124559 | 11 | 0 | 0.0 | 0.0 | 0.00 | 0.00 | 0.00 | 49 | 1017.3 |
| 20260904124051 | 11 | 0 | 0.0 | 1.6 | 0.00 | 0.00 | 0.00 | 50 | 1017.3 |
| 20260904123545 | 11 | 0 | 0.0 | 1.6 | 0.00 | 0.00 | 0.00 | 50 | 1017.3 |
| 20260904123106 | 11 | 0 | 0.0 | 0.0 | 0.00 | 0.00 | 0.00 | 50 | 1017.3 |
| 20260904122550 | 11 | 0 | 0.0 | 0.0 | 0.00 | 0.00 | 0.00 | 50 | 1017.3 |
| 20260904122051 | 11 | 0 | 0.0 | 0.0 | 0.00 | 0.00 | 0.00 | 50 | 1017.2 |
| 20260904121604 | 12 | 0 | 0.0 | 0.0 | 0.00 | 0.00 | 0.00 | 50 | 1017.2 |
| 20260904121044 | 12 | 0 | 0.0 | 0.0 | 0.00 | 0.00 | 0.00 | 50 | 1017.2 |
| 20260904120547 | 12 | 0 | 0.0 | 0.0 | 0.00 | 0.00 | 0.00 | 49 | 1017.3 |
| 20260904120100 | 12 | 0 | 0.0 | 3.2 | 0.00 | 0.00 | 0.00 | 48 | 1017.2 |
| 20260904115549 | 12 | 0 | 0.0 | 3.2 | 0.00 | 0.00 | 0.00 | 48 | 1017.3 |
| 20260904115047 | 12 | 0 | 0.0 | 3.2 | 0.00 | 0.00 | 0.00 | 48 | 1017.3 |
| 20260904114600 | 12 | 0 | 0.0 | 3.2 | 0.00 | 0.00 | 0.00 | 47 | 1017.4 |
| 20260904114045 | 12 | 0 | 0.0 | 3.2 | 0.00 | 0.00 | 0.00 | 46 | 1017.4 |
| 20260904113548 | 12 | 0 | 0.0 | 1.6 | 0.00 | 0.00 | 0.00 | 46 | 1017.4 |
| 20260904113101 | 12 | 0 | 0.0 | 3.2 | 0.00 | 0.00 | 0.00 | 46 | 1017.4 |
| 20260904112548 | 12 | 0 | 0.0 | 3.2 | 0.00 | 0.00 | 0.00 | 46 | 1017.4 |
| 20260904112047 | 12 | 0 | 0.0 | 3.2 | 0.00 | 0.00 | 0.00 | 46 | 1017.5 |
| 20260904111606 | 12 | 0 | 0.0 | 4.8 | 0.00 | 0.00 | 0.00 | 46 | 1017.4 |
| 20260904111050 | 12 | 0 | 0.0 | 4.8 | 0.00 | 0.00 | 0.00 | 47 | 1017.5 |
| 20260904110550 | 12 | 0 | 0.0 | 3.2 | 0.00 | 0.00 | 0.00 | 47 | 1017.3 |
| 20260904110057 | 12 | 0 | 0.0 | 3.2 | 0.00 | 0.00 | 0.00 | 47 | 1017.3 |
| 20260904105545 | 12 | 0 | 0.0 | 3.2 | 0.00 | 0.00 | 0.00 | 47 | 1017.3 |
| 20260904105051 | 12 | 0 | 0.0 | 4.8 | 0.00 | 0.00 | 0.00 | 47 | 1017.3 |
| 20260904104606 | 12 | 0 | 0.0 | 4.8 | 0.00 | 0.00 | 0.00 | 46 | 1017.3 |
| 20260904104051 | 12 | 0 | 0.0 | 4.8 | 0.00 | 0.00 | 0.00 | 44 | 1017.3 |
| 20260904103544 | 12 | 0 | 0.0 | 4.8 | 0.00 | 0.00 | 0.00 | 44 | 1017.2 |
| 20260904103110 | 12 | 36 | 0.0 | 3.2 | 0.00 | 0.00 | 0.00 | 40 | 1017.2 |
| 20260904102548 | 12 | 0 | 0.0 | 3.2 | 0.00 | 0.00 | 0.00 | 37 | 1017.1 |
| 20260904102045 | 12 | 0 | 0.0 | 3.2 | 0.00 | 0.00 | 0.00 | 37 | 1017.2 |
| 20260904101600 | 12 | 0 | 0.0 | 3.2 | 0.00 | 0.00 | 0.00 | 37 | 1017.2 |
| 20260904101048 | 12 | 0 | 0.0 | 3.2 | 0.00 | 0.00 | 0.00 | 35 | 1017.1 |
| 20260904100545 | 12 | 0 | 0.0 | 1.6 | 0.00 | 0.00 | 0.00 | 35 | 1017.0 |
| 20260904095545 | 12 | 0 | 0.0 | 1.6 | 0.00 | 0.00 | 0.00 | 38 | 1017.1 |
| 20260904095045 | 12 | 0 | 0.0 | 3.2 | 0.00 | 0.00 | 0.00 | 39 | 1017.0 |
| 20260904094600 | 12 | 0 | 0.0 | 3.2 | 0.00 | 0.00 | 0.00 | 39 | 1017.0 |
| 20260904094045 | 12 | 0 | 0.0 | 3.2 | 0.00 | 0.00 | 0.00 | 39 | 1017.1 |
| 20260904093545 | 12 | 0 | 0.0 | 4.8 | 0.00 | 0.00 | 0.00 | 40 | 1017.1 |
| 20260904093058 | 12 | 0 | 0.0 | 4.8 | 0.00 | 0.00 | 0.00 | 39 | 1017.1 |
| 20260904092548 | 12 | 0 | 0.0 | 3.2 | 0.00 | 0.00 | 0.00 | 40 | 1017.1 |
| 20260904092050 | 12 | 0 | 0.0 | 3.2 | 0.00 | 0.00 | 0.00 | 40 | 1017.1 |
| 20260904091611 | 12 | 0 | 0.0 | 3.2 | 0.00 | 0.00 | 0.00 | 39 | 1017.1 |
| 20260904091050 | 12 | 0 | 0.0 | 1.6 | 0.00 | 0.00 | 0.00 | 39 | 1017.3 |
| 20260904090548 | 12 | 0 | 0.0 | 3.2 | 0.00 | 0.00 | 0.00 | 39 | 1017.2 |
| 20260904085548 | 12 | 0 | 0.0 | 0.0 | 0.00 | 0.00 | 0.00 | 39 | 1017.3 |
| 20260904085047 | 12 | 0 | 0.0 | 1.6 | 0.00 | 0.00 | 0.00 | 38 | 1017.4 |
| 20260904084608 | 12 | 0 | 0.0 | 1.6 | 0.00 | 0.00 | 0.00 | 37 | 1017.6 |
| 20260904084048 | 12 | 0 | 0.0 | 3.2 | 0.00 | 0.00 | 0.00 | 37 | 1017.6 |
| 20260904083547 | 12 | 0 | 0.0 | 3.2 | 0.00 | 0.00 | 0.00 | 38 | 1017.6 |
| 20260904083112 | 13 | 0 | 0.0 | 3.2 | 0.00 | 0.00 | 0.00 | 38 | 1017.6 |
| 20260904082547 | 13 | 0 | 0.0 | 3.2 | 0.00 | 0.00 | 0.00 | 38 | 1017.6 |
| 20260904082052 | 13 | 0 | 0.0 | 3.2 | 0.00 | 0.00 | 0.00 | 38 | 1017.7 |
| 20260904081601 | 13 | 0 | 0.0 | 3.2 | 0.00 | 0.00 | 0.00 | 39 | 1017.6 |
| 20260904081045 | 13 | 0 | 0.0 | 3.2 | 0.00 | 0.00 | 0.00 | 38 | 1017.7 |
| 20260904080546 | 13 | 0 | 0.0 | 1.6 | 0.00 | 0.00 | 0.00 | 38 | 1017.8 |
| 20260904075545 | 13 | 0 | 0.0 | 0.0 | 0.00 | 0.00 | 0.00 | 38 | 1017.8 |
| 20260904075051 | 13 | 0 | 0.0 | 1.6 | 0.00 | 0.00 | 0.00 | 38 | 1017.8 |
| 20260904074609 | 13 | 0 | 0.0 | 3.2 | 0.00 | 0.00 | 0.00 | 37 | 1017.7 |
| 20260904074044 | 13 | 0 | 0.0 | 3.2 | 0.00 | 0.00 | 0.00 | 37 | 1017.8 |
| 20260904073544 | 13 | 0 | 0.0 | 1.6 | 0.00 | 0.00 | 0.00 | 36 | 1017.9 |
| 20260904073104 | 13 | 0 | 0.0 | 1.6 | 0.00 | 0.00 | 0.00 | 36 | 1017.9 |
| 20260904072549 | 13 | 0 | 0.0 | 1.6 | 0.00 | 0.00 | 0.00 | 34 | 1018.0 |
| 20260904072047 | 13 | 0 | 0.0 | 1.6 | 0.00 | 0.00 | 0.00 | 33 | 1018.0 |
| 20260904071605 | 13 | 0 | 0.0 | 4.8 | 0.00 | 0.00 | 0.00 | 33 | 1018.0 |
| 20260904071045 | 13 | 0 | 0.0 | 4.8 | 0.00 | 0.00 | 0.00 | 33 | 1017.9 |
| 20260904070548 | 13 | 0 | 0.0 | 4.8 | 0.00 | 0.00 | 0.00 | 31 | 1017.9 |
| 20260904070129 | 13 | 0 | 0.0 | 4.8 | 0.00 | 0.00 | 0.00 | 31 | 1018.0 |
| 20260904065546 | 13 | 0 | 0.0 | 4.8 | 0.00 | 0.00 | 0.00 | 30 | 1017.9 |
| 20260904065048 | 13 | 0 | 0.0 | 4.8 | 0.00 | 0.00 | 0.00 | 30 | 1018.0 |
| 20260904064601 | 13 | 0 | 0.0 | 4.8 | 0.00 | 0.00 | 0.00 | 30 | 1017.9 |
| 20260904064048 | 13 | 0 | 0.0 | 3.2 | 0.00 | 0.00 | 0.00 | 30 | 1017.9 |
| 20260904063545 | 13 | 0 | 0.0 | 4.8 | 0.00 | 0.00 | 0.00 | 31 | 1017.9 |
| 20260904063106 | 13 | 5 | 0.0 | 4.8 | 0.00 | 0.00 | 0.00 | 30 | 1017.9 |
| 20260904062545 | 13 | 0 | 0.0 | 4.8 | 0.00 | 0.00 | 0.00 | 32 | 1017.8 |
| 20260904062045 | 13 | 0 | 0.0 | 1.6 | 0.00 | 0.00 | 0.00 | 33 | 1017.7 |
| 20260904061558 | 13 | 0 | 0.0 | 1.6 | 0.00 | 0.00 | 0.00 | 33 | 1017.8 |
| 20260904061048 | 13 | 0 | 0.0 | 3.2 | 0.00 | 0.00 | 0.00 | 35 | 1017.7 |
| 20260904060545 | 13 | 0 | 0.0 | 3.2 | 0.00 | 0.00 | 0.00 | 35 | 1017.8 |
| 20260904055545 | 13 | 0 | 0.0 | 6.4 | 0.00 | 0.00 | 0.00 | 37 | 1017.9 |
| 20260904055050 | 13 | 0 | 0.0 | 6.4 | 0.00 | 0.00 | 0.00 | 35 | 1017.9 |
| 20260904054558 | 13 | 14 | 0.0 | 3.2 | 0.00 | 0.00 | 0.00 | 36 | 1017.9 |
| 20260904054048 | 13 | 14 | 0.0 | 3.2 | 0.00 | 0.00 | 0.00 | 39 | 1017.9 |
| 20260904053546 | 13 | 0 | 0.0 | 3.2 | 0.00 | 0.00 | 0.00 | 39 | 1017.8 |
| 20260904053101 | 12 | 0 | 0.0 | 0.0 | 0.00 | 0.00 | 0.00 | 40 | 1017.8 |
| 20260904052545 | 12 | 0 | 0.0 | 1.6 | 0.00 | 0.00 | 0.00 | 40 | 1017.7 |
| 20260904052045 | 12 | 0 | 0.0 | 3.2 | 0.00 | 0.00 | 0.00 | 38 | 1017.9 |
| 20260904051621 | 12 | 0 | 0.0 | 3.2 | 0.00 | 0.00 | 0.00 | 39 | 1017.9 |
| 20260904051044 | 12 | 0 | 0.0 | 3.2 | 0.00 | 0.00 | 0.00 | 41 | 1017.9 |
| 20260904050544 | 12 | 0 | 0.0 | 1.6 | 0.00 | 0.00 | 0.00 | 44 | 1017.9 |
| 20260904045545 | 12 | 0 | 0.0 | 0.0 | 0.00 | 0.00 | 0.00 | 52 | 1018.1 |
| 20260904045043 | 12 | 0 | 0.0 | 0.0 | 0.00 | 0.00 | 0.00 | 54 | 1018.2 |
| 20260904044613 | 12 | 0 | 0.0 | 0.0 | 0.00 | 0.00 | 0.00 | 53 | 1018.3 |
| 20260904044046 | 12 | 0 | 0.0 | 0.0 | 0.00 | 0.00 | 0.00 | 52 | 1018.2 |
| 20260904043551 | 12 | 0 | 0.0 | 0.0 | 0.00 | 0.00 | 0.00 | 51 | 1018.2 |
| 20260904043100 | 12 | 0 | 0.0 | 0.0 | 0.00 | 0.00 | 0.00 | 51 | 1018.3 |
| 20260904042548 | 12 | 0 | 0.0 | 0.0 | 0.00 | 0.00 | 0.00 | 50 | 1018.3 |
| 20260904042046 | 12 | 0 | 0.0 | 0.0 | 0.00 | 0.00 | 0.00 | 50 | 1018.2 |
| 20260904041601 | 12 | 0 | 0.0 | 0.0 | 0.00 | 0.00 | 0.00 | 49 | 1018.3 |
| 20260904041045 | 12 | 0 | 0.0 | 1.6 | 0.00 | 0.00 | 0.00 | 50 | 1018.2 |
| 20260904040545 | 12 | 0 | 0.0 | 1.6 | 0.00 | 0.00 | 0.00 | 52 | 1018.3 |
| 20260904040110 | 12 | 0 | 0.0 | 0.0 | 0.00 | 0.00 | 0.00 | 54 | 1018.3 |
| 20260904035542 | 12 | 0 | 0.0 | 0.0 | 0.00 | 0.00 | 0.00 | 56 | 1018.2 |
| 20260904035044 | 12 | 0 | 0.0 | 0.0 | 0.00 | 0.00 | 0.00 | 58 | 1018.2 |
| 20260904034608 | 12 | 0 | 0.0 | 0.0 | 0.00 | 0.00 | 0.00 | 61 | 1018.1 |
| 20260904034045 | 13 | 0 | 0.0 | 1.6 | 0.00 | 0.00 | 0.00 | 65 | 1018.1 |
| 20260904033545 | 13 | 0 | 0.0 | 1.6 | 0.00 | 0.00 | 0.00 | 67 | 1018.0 |
| 20260904033104 | 13 | 0 | 0.0 | 0.0 | 0.00 | 0.00 | 0.00 | 71 | 1018.0 |
| 20260904032545 | 13 | 0 | 0.0 | 0.0 | 0.00 | 0.00 | 0.00 | 76 | 1018.0 |
| 20260904032044 | 13 | 0 | 0.0 | 0.0 | 0.00 | 0.00 | 0.00 | 76 | 1017.9 |
| 20260904031600 | 13 | 0 | 0.0 | 0.0 | 0.00 | 0.00 | 0.00 | 76 | 1017.9 |
| 20260904031045 | 14 | 0 | 0.0 | 0.0 | 0.00 | 0.00 | 0.00 | 75 | 1017.9 |
| 20260904030542 | 14 | 0 | 0.0 | 0.0 | 0.00 | 0.00 | 0.00 | 75 | 1018.0 |
| 20260904030104 | 14 | 0 | 0.0 | 0.0 | 0.00 | 0.00 | 0.00 | 74 | 1018.0 |
| 20260904025544 | 15 | 0 | 0.0 | 0.0 | 0.00 | 0.00 | 0.00 | 74 | 1018.0 |
| 20260904025049 | 15 | 0 | 0.0 | 0.0 | 0.00 | 0.00 | 0.00 | 74 | 1017.9 |
| 20260904024609 | 15 | 0 | 0.0 | 0.0 | 0.00 | 0.00 | 0.00 | 73 | 1017.8 |
| 20260904024048 | 15 | 0 | 0.0 | 0.0 | 0.00 | 0.00 | 0.00 | 73 | 1017.9 |
| 20260904023543 | 15 | 0 | 0.0 | 1.6 | 0.00 | 0.00 | 0.00 | 73 | 1017.7 |
| 20260904023103 | 16 | 0 | 0.0 | 1.6 | 0.00 | 0.00 | 0.00 | 73 | 1017.7 |
| 20260904022542 | 16 | 0 | 0.0 | 0.0 | 0.00 | 0.00 | 0.00 | 74 | 1017.7 |
| 20260904022045 | 16 | 0 | 0.0 | 1.6 | 0.00 | 0.00 | 0.00 | 74 | 1017.7 |
| 20260904021606 | 16 | 0 | 0.0 | 3.2 | 0.00 | 0.00 | 0.00 | 74 | 1017.8 |
| 20260904021044 | 16 | 0 | 0.0 | 3.2 | 0.00 | 0.00 | 0.00 | 73 | 1017.7 |
| 20260904020545 | 16 | 0 | 0.0 | 4.8 | 0.00 | 0.00 | 0.00 | 73 | 1017.8 |
| 20260904020106 | 16 | 0 | 0.0 | 4.8 | 0.00 | 0.00 | 0.00 | 72 | 1017.7 |
| 20260904015547 | 16 | 155 | 0.0 | 6.4 | 0.00 | 0.00 | 0.00 | 71 | 1017.8 |
| 20260904015048 | 17 | 0 | 1.6 | 6.4 | 0.00 | 0.00 | 0.00 | 71 | 1017.8 |
| 20260904014640 | 17 | 178 | 0.0 | 8.0 | 0.00 | 0.00 | 0.00 | 70 | 1017.8 |
| 20260904014049 | 17 | 206 | 0.0 | 8.0 | 0.00 | 0.00 | 0.00 | 69 | 1017.8 |
| 20260904013545 | 17 | 206 | 1.6 | 6.4 | 0.00 | 0.00 | 0.00 | 68 | 1017.7 |
| 20260904013100 | 17 | 0 | 0.0 | 8.0 | 0.00 | 0.00 | 0.00 | 67 | 1017.8 |
| 20260904012545 | 17 | 0 | 0.0 | 9.7 | 0.00 | 0.00 | 0.00 | 67 | 1017.9 |
| 20260904012044 | 17 | 0 | 0.0 | 14.5 | 0.00 | 0.00 | 0.00 | 66 | 1017.9 |
| 20260904011626 | 18 | 195 | 1.6 | 14.5 | 0.00 | 0.00 | 0.00 | 65 | 1017.9 |
| 20260904011046 | 18 | 150 | 1.6 | 6.4 | 0.00 | 0.00 | 0.00 | 64 | 1017.9 |
| 20260904010548 | 18 | 0 | 0.0 | 4.8 | 0.00 | 0.00 | 0.00 | 63 | 1018.0 |
| 20260904010108 | 18 | 0 | 0.0 | 11.3 | 0.00 | 0.00 | 0.00 | 62 | 1018.0 |
| 20260904005548 | 18 | 126 | 1.6 | 11.3 | 0.00 | 0.00 | 0.00 | 62 | 1018.0 |
| 20260904005045 | 19 | 163 | 0.0 | 6.4 | 0.00 | 0.00 | 0.00 | 60 | 1018.1 |
| 20260904004604 | 19 | 0 | 0.0 | 6.4 | 0.00 | 0.00 | 0.00 | 59 | 1018.0 |
| 20260904004045 | 20 | 205 | 0.0 | 14.5 | 0.00 | 0.00 | 0.00 | 59 | 1018.0 |
| 20260904003545 | 20 | 0 | 3.2 | 14.5 | 0.00 | 0.00 | 0.00 | 58 | 1018.0 |
| 20260904003104 | 20 | 159 | 1.6 | 14.5 | 0.00 | 0.00 | 0.00 | 58 | 1018.0 |
| 20260904002545 | 20 | 185 | 1.6 | 14.5 | 0.00 | 0.00 | 0.00 | 57 | 1018.0 |